Flag for U.S.A. Weather past 2 weeks in Santa Clarita, California, U.S.A.

Now
77 °F

Clear.


Feels Like: 79 °F
Forecast: 71 / 98 °F
Wind: 5 mph from East

Location: Van Nuys Airport

Current Time: Jul 30, 2014 at 11:47:01 PM

Latest Report: Jul 30, 2014 at 10:51 PM


Visibility: 10 mi

Pressure: 29.90 "Hg

Humidity: 50%

Dew point: 57 °F

Location of Santa ClaritaLocation

Historic Weather in Santa Clarita — Graph

°F

Santa Clarita temperature yesterday

Maximum temperature yesterday: 95 °F (at 3:51 PM)
Minimum temperature yesterday: 70 °F (at 6:51 AM)
Average temperature yesterday: 82 °F

Past Weeks' High & Low Weather Summary

 TemperatureHumidityPressure
High102 °F (Jul 24, 3:51 PM)84% (Jul 17, 3:51 AM)30.05 "Hg (Jul 17, 3:51 AM)
Low62 °F (Jul 18, 4:51 AM)7% (Jul 24, 12:51 PM)29.70 "Hg (Jul 24, 5:51 PM)
Average77 °F51%29.94 "Hg
* Reported Jul 15 10:51 PM — Jul 30 10:51 PM, Santa Clarita, Weather by CustomWeather, © 2014

Note: Actual official high and low records may vary slightly from our data, if they occured in-between our weather recording intervals... More about our weather records

Advertising

Santa Clarita weather history for previous 24 hours

 ConditionsComfort  
Time TempWeatherWind HumidityBarometerVisibility
10:51 PM
Jul 30
77 °FClear.5 mph50%29.90 "Hg10 mi
9:51 PM78 °FClear.6 mph48%29.90 "Hg10 mi
8:51 PM82 °FSunny.3 mph41%29.88 "Hg10 mi
7:51 PM83 °FSunny.6 mph40%29.86 "Hg10 mi
6:51 PM89 °FSunny.6 mph31%29.85 "Hg10 mi
5:51 PM90 °FSunny.7 mph32%29.85 "Hg10 mi
4:51 PM93 °FSunny.9 mph27%29.86 "Hg10 mi
3:51 PM93 °FSunny.9 mph28%29.86 "Hg10 mi
2:51 PM95 °FSunny.9 mph26%29.88 "Hg10 mi
1:51 PM95 °FSunny.9 mph26%29.89 "Hg10 mi
12:51 PM94 °FSunny.8 mph29%29.90 "Hg10 mi
11:51 AM92 °FSunny.5 mph31%29.92 "Hg10 mi
10:51 AM87 °FSunny.3 mph32%29.93 "Hg10 mi
9:51 AM83 °FSunny.No wind38%29.93 "Hg10 mi
8:51 AM81 °FSunny.3 mph41%29.94 "Hg10 mi
7:51 AM76 °FSunny.No wind54%29.94 "Hg10 mi
6:51 AM73 °FClear.No wind57%29.93 "Hg10 mi
5:51 AM72 °FClear.No wind57%29.92 "Hg10 mi
4:51 AM73 °FClear.No wind55%29.91 "Hg10 mi
3:51 AM72 °FClear.No wind57%29.91 "Hg10 mi
2:51 AM73 °FClear.No wind55%29.92 "Hg10 mi
1:51 AM72 °FClear.No wind57%29.93 "Hg10 mi
12:51 AM73 °FClear.3 mph57%29.93 "Hg10 mi
11:51 PM
Jul 29
76 °FClear.6 mph50%29.93 "Hg10 mi
Weather by CustomWeather, © 2014

See weather overviewHow to use our weather pages